Dewpoint
17 12 12 10 7 9 13 13 16 18 19 20 22 24 24 24 24 25 25 33 33 32 34 35 36 35 38 41 45 49 48 48 47 48 50 52 52 52 54 54 55 57 57 60 61 60 60 61 62 63 64 64 65 67 67 69 71 72 71 71 72 73 72 71 71 72 71 71 70 71 70 69 70 72 72 72 72 70 71 74 76 77 77 79 78 79
15 14 8 8 6 10 12 15 17 17 18 19 22 23 23 24 21 22 23 29 33 32 35 37 35 38 40 38 40 47 48 46 46 48 50 51 52 53 55 56 56 57 56 58 61 59 60 61 62 63 64 66 65 67 68 69 71 73 72 71 72 73 73 71 71 72 72 71 70 70 71 69 67 69 71 70 71 69 70 75 77 78 77 78 78 77
13 11 6 7 9 11 13 15 17 17 18 19 20 22 22 24 23 22 23 26 32 32 34 35 35 37 39 39 39 44 47 50 48 48 49 52 52 54 54 56 57 57 58 57 59 60 58 60 61 63 64 64 65 67 68 70 72 73 73 72 73 73 73 72 72 72 72 72 72 71 70 69 67 68 70 69 68 70 70 73 77 77 77 78 77 77
11 9 8 6 8 8 9 12 14 15 17 18 20 23 22 22 22 20 24 26 31 32 32 38 34 36 39 42 42 43 47 50 49 47 47 48 52 53 53 56 56 57 59 58 59 59 58 60 63 63 64 65 65 67 69 70 71 72 74 73 73 73 73 74 73 73 73 74 73 74 73 72 70 69 69 70 71 71 71 71 75 77 78 78 76 77
9 8 7 4 5 7 8 10 11 13 15 17 19 19 21 20 20 20 25 30 33 34 34 36 36 37 39 38 39 43 43 46 49 49 48 49 50 52 53 54 57 57 59 59 59 60 60 60 61 63 65 65 65 66 68 69 70 71 73 73 74 74 74 74 74 74 74 74 74 74 74 74 72 71 69 69 68 69 72 72 74 76 78 78 77 75
6 6 6 4 4 5 7 7 8 10 14 15 18 18 20 21 20 21 24 31 31 31 33 35 36 36 40 39 40 41 41 44 48 52 51 51 50 53 53 54 56 56 58 61 61 61 61 60 62 64 65 65 65 66 68 69 70 72 73 74 74 74 74 73 74 75 74 74 74 74 73 72 71 70 70 70 70 69 69 69 70 74 73 72 73 73
4 9 6 2 1 2 3 5 9 11 11 14 16 19 19 20 21 21 21 24 29 31 32 35 36 35 39 38 40 41 41 42 44 49 49 52 53 50 54 54 54 55 56 59 61 61 61 61 61 63 65 66 65 66 67 69 70 72 73 74 75 75 74 74 75 75 75 74 74 74 73 72 71 71 71 72 71 70 69 70 69 69 72 73 72 71
13 10 2 -3 -1 -1 1 3 6 8 10 12 16 18 19 20 19 20 21 23 29 31 31 35 37 36 34 35 39 38 39 42 43 46 49 48 52 51 53 53 56 55 56 57 61 62 62 62 61 62 64 66 65 67 67 68 70 72 74 74 75 75 75 75 75 75 76 75 74 74 74 72 72 70 71 72 73 72 71 68 68 68 70 72 72 71
15 9 2 2 4 -1 -1 2 6 7 9 13 15 16 18 19 21 21 19 22 25 28 31 31 34 37 36 38 37 36 36 38 41 43 48 49 48 52 53 53 55 55 57 57 60 62 62 62 61 62 64 65 65 65 67 68 70 71 73 74 76 75 75 74 75 75 76 76 75 75 74 73 72 72 71 71 71 71 71 70 69 70 69 71 73 71
17 14 4 3 5 -1 -1 3 7 9 9 12 14 16 17 19 21 21 19 21 26 31 30 30 28 32 32 36 34 36 35 36 38 40 41 47 51 52 54 56 55 56 59 57 59 62 62 62 62 62 63 65 65 65 68 69 69 71 73 74 76 76 75 74 75 76 76 76 75 74 74 73 73 73 72 70 69 70 71 71 70 71 72 71 71 72
16 22 17 5 6 5 7 7 6 5 6 8 12 14 16 17 20 24 24 26 26 25 28 26 27 28 30 34 32 35 33 36 37 41 41 46 50 52 54 54 53 56 58 58 59 62 63 62 63 63 63 65 66 66 67 67 68 69 72 74 75 76 75 75 75 76 76 76 75 74 74 73 73 73 73 72 71 70 71 72 71 71 72 71 70 69
19 14 13 8 10 8 4 1 0 2 4 7 9 14 18 21 24 27 24 27 24 23 27 23 23 25 29 32 33 36 37 36 38 39 41 38 43 50 50 49 54 53 56 58 59 61 63 64 63 63 64 65 66 67 65 66 68 69 71 73 75 76 76 75 75 76 75 75 75 75 74 73 74 74 73 73 72 71 71 71 71 71 71 72 71 71
16 14 14 14 19 8 5 -2 -4 1 3 4 10 18 17 20 28 23 25 21 21 21 24 20 22 24 27 34 34 33 31 36 39 37 35 35 38 45 49 52 52 53 53 57 61 62 63 63 63 63 65 67 68 67 67 66 66 68 71 73 74 75 76 75 75 75 76 75 75 75 74 74 74 73 73 73 73 72 72 72 71 71 70 71 71 71
15 12 12 14 12 13 5 -4 -4 -2 3 3 10 16 17 18 22 23 22 23 22 20 19 20 24 23 28 31 35 32 33 32 36 38 35 36 36 41 42 54 52 52 53 57 60 61 63 64 64 65 65 67 67 67 66 66 67 70 71 73 74 75 76 76 76 75 76 76 75 76 75 74 74 73 74 73 72 71 72 72 71 70 69 71 71 69
17 12 8 13 12 11 7 -1 -6 -2 3 5 5 10 18 24 20 24 22 20 21 26 22 22 24 29 26 31 31 31 34 34 33 33 38 37 35 38 35 44 53 52 54 58 61 60 61 63 65 65 66 66 67 67 65 65 68 70 71 73 75 76 76 77 76 76 76 76 75 75 75 75 74 73 73 73 73 72 72 71 71 72 70 69 70 69
15 14 10 12 15 10 6 2 -3 -4 0 2 5 11 16 19 24 19 22 24 23 21 20 26 25 27 29 34 34 34 31 34 33 34 35 37 34 36 35 48 53 50 49 53 60 61 62 64 66 65 66 67 67 68 66 66 68 69 71 73 75 75 76 77 77 76 76 76 76 76 76 76 75 74 73 74 74 73 72 72 72 72 72 71 71 71
17 15 14 12 14 10 6 5 0 -4 0 7 9 12 14 15 17 22 26 22 23 21 23 26 23 24 25 25 27 33 33 33 33 32 31 34 31 38 39 37 44 52 51 55 59 61 64 64 65 65 66 66 67 67 67 69 69 71 71 72 74 75 76 77 77 76 76 76 76 76 76 76 75 74 73 72 73 72 73 73 72 72 72 72 71 71
18 17 14 14 14 15 13 9 3 -5 -5 4 7 8 13 15 15 22 20 26 21 19 23 18 20 22 23 24 30 31 30 30 34 32 28 33 32 30 35 43 46 52 56 58 61 64 64 64 66 65 65 65 67 68 69 70 70 70 70 72 74 75 75 76 76 76 76 76 76 77 77 76 76 74 73 73 72 74 73 73 73 72 71 71 70 70
16 16 16 14 15 17 15 12 7 1 -1 -2 0 6 5 13 16 22 23 18 19 21 22 23 21 20 22 27 28 32 29 31 35 36 33 29 29 32 34 43 50 51 54 58 59 62 63 64 66 67 65 65 67 70 70 70 70 70 71 72 73 75 74 75 74 76 76 76 76 76 77 77 76 75 74 74 74 74 74 71 73 72 71 71 71 71
15 14 16 16 14 14 14 12 12 5 1 -3 -3 1 9 13 18 20 21 23 26 21 21 21 20 24 27 26 26 31 32 32 33 33 32 28 29 28 34 36 43 52 55 57 59 61 63 63 64 64 65 64 66 69 69 69 69 68 70 72 73 73 75 75 75 76 76 76 76 76 77 77 77 77 75 75 75 73 74 74 73 72 70 71 71 71
17 27 18 13 13 13 14 14 10 9 5 -2 -6 -3 6 11 10 14 16 19 21 22 21 23 21 25 28 25 25 33 34 34 33 33 34 31 30 28 30 34 42 47 52 57 59 60 62 63 63 64 64 64 65 68 69 68 68 68 68 70 71 73 73 73 74 74 76 76 76 76 77 76 77 76 76 75 75 75 75 75 74 73 71 72 72 71
20 22 20 17 13 13 12 14 11 7 6 1 -6 -4 1 8 13 14 18 15 15 19 24 20 22 30 25 21 27 26 31 31 33 33 32 32 28 39 34 35 40 45 56 58 57 58 60 64 64 64 64 64 64 66 66 67 67 66 67 67 69 68 70 70 72 74 76 76 76 76 76 76 77 77 76 76 75 75 75 75 74 74 73 72 72 71
21 21 21 18 12 11 12 10 11 9 7 4 -1 -5 -5 1 12 15 16 16 14 18 18 22 22 26 30 29 31 29 30 29 31 29 31 29 34 31 33 27 39 52 57 56 56 55 59 63 64 65 66 66 65 68 68 66 65 65 65 66 68 68 69 68 70 73 76 76 76 77 76 76 77 77 76 75 75 74 74 74 75 74 73 72 71 71
43 20 22 20 21 13 13 12 11 11 8 1 -1 1 -7 -9 -1 11 16 22 21 19 17 20 25 20 25 36 34 28 38 31 32 30 34 30 29 31 32 35 45 52 60 58 57 54 59 62 65 68 68 68 68 70 68 67 67 65 64 64 66 67 67 68 68 71 75 76 76 76 77 76 76 76 75 73 74 74 73 72 73 74 73 72 71 70
22 29 25 24 24 21 15 16 9 7 7 4 1 2 1 -0 -2 3 13 22 21 18 18 20 18 18 29 32 34 33 29 28 28 28 31 32 33 30 34 37 43 52 61 60 59 59 61 61 66 70 70 72 71 68 69 68 67 66 66 65 64 66 67 67 68 70 73 75 74 75 76 76 75 76 75 74 73 73 72 71 72 73 72 72 71 71
22 25 28 22 25 21 19 19 16 13 9 6 5 0 4 3 4 -1 7 20 19 31 31 22 21 27 29 36 29 29 30 37 34 32 29 32 36 31 32 36 56 58 65 64 62 61 61 67 69 71 72 72 69 68 71 71 68 67 67 67 65 65 67 67 67 68 72 73 74 75 76 76 75 75 75 74 73 72 72 71 72 72 72 72 70 70
24 26 29 29 24 23 24 29 20 19 12 8 5 3 -2 -3 -1 7 14 13 12 23 24 29 27 27 29 25 30 26 30 32 32 34 32 32 32 35 45 59 57 64 66 62 63 62 67 69 69 70 71 70 68 70 69 68 68 68 71 70 66 66 68 70 70 71 71 73 73 76 77 76 76 75 75 75 74 73 72 71 69 70 71 71 70 69
32 26 24 33 31 28 23 23 16 18 15 11 8 6 2 -1 5 10 10 8 27 16 13 26 35 27 26 28 30 31 29 33 34 36 32 33 35 33 37 66 66 62 64 64 63 64 65 67 69 70 71 71 70 70 70 70 69 70 71 70 68 66 67 68 71 71 71 73 75 76 77 77 77 76 76 75 76 75 74 72 71 72 73 72 70 69
29 27 23 21 25 24 22 20 17 17 15 10 10 11 9 5 4 6 17 11 23 15 13 27 33 29 27 20 21 30 32 33 29 33 32 32 30 38 47 49 61 62 64 63 64 66 67 67 70 71 71 71 71 71 71 71 71 72 72 71 71 66 68 71 72 72 71 74 75 76 78 78 77 77 77 76 76 75 74 73 73 73 73 73 71 69
33 31 30 24 24 23 23 21 20 17 17 17 17 16 14 10 8 5 5 5 8 27 22 22 32 25 21 20 21 25 32 30 30 34 32 32 29 43 37 40 50 52 59 63 65 65 68 69 71 72 72 73 71 72 72 72 72 71 71 71 69 70 70 72 73 74 73 74 76 77 78 77 77 76 76 75 75 75 74 74 73 72 72 72 71 71
32 31 35 29 29 26 23 23 22 19 18 14 17 17 13 12 14 12 8 7 14 13 7 11 27 26 23 31 29 28 32 30 33 28 28 36 33 29 32 29 37 37 41 60 67 66 68 70 72 73 73 73 72 72 73 73 73 72 70 71 71 72 71 71 75 75 75 75 76 77 78 77 76 76 76 76 75 75 74 73 73 73 73 72 72 71
28 29 30 33 31 30 28 27 25 22 18 17 15 16 17 16 16 11 16 13 14 21 21 16 21 18 21 26 28 31 31 32 30 34 34 34 29 35 35 33 34 40 39 42 54 67 69 70 72 72 73 72 72 73 73 74 73 73 71 73 72 70 70 72 74 75 76 76 77 77 77 77 76 76 76 75 75 75 75 74 73 73 73 72 71 72
30 30 31 32 32 31 28 27 25 25 27 22 20 17 18 19 15 14 15 17 16 13 17 19 18 22 27 28 26 30 28 31 32 29 32 36 47 36 36 35 34 35 40 59 63 67 68 68 70 73 72 72 72 73 73 74 72 74 74 75 75 74 73 74 75 76 76 77 77 77 77 77 75 75 75 75 75 75 75 74 74 75 74 72 72 72
29 30 32 36 32 30 28 28 28 26 24 24 27 23 22 18 19 16 11 15 18 19 20 20 22 27 25 22 22 26 27 31 35 41 38 40 41 45 33 37 32 33 32 38 53 56 68 69 69 71 73 74 73 72 74 75 74 74 74 75 76 75 75 75 76 77 77 78 78 78 77 76 74 75 75 75 75 75 74 73 73 73 72 72 72 72
24 31 33 37 30 29 32 32 33 27 25 32 27 25 24 22 20 21 22 16 15 20 20 20 19 23 27 25 26 29 33 29 28 32 29 28 36 34 41 33 39 41 42 48 55 48 65 70 70 72 73 72 71 73 73 73 73 74 75 76 76 76 76 76 77 77 77 77 78 77 76 75 74 75 75 74 74 74 74 73 74 73 72 71 71 72
29 31 37 37 35 35 36 33 30 28 34 28 25 24 24 22 22 23 21 20 19 18 22 23 24 23 27 26 24 29 33 26 27 35 36 28 27 30 23 27 34 33 33 40 58 66 69 68 69 70 72 72 71 71 72 73 73 73 75 76 75 76 76 76 77 77 77 77 77 77 75 74 74 72 74 74 73 73 73 73 73 73 73 72 71 71
38 40 40 36 38 34 32 31 29 36 31 30 28 33 29 31 32 35 37 39 35 27 22 25 26 25 23 23 23 25 30 27 32 31 23 23 32 28 24 27 28 32 31 53 49 60 70 70 71 71 74 72 71 71 72 73 73 74 75 75 75 76 76 76 76 77 77 77 77 76 75 74 73 73 73 73 72 72 72 72 72 72 72 71 70 69
38 36 41 38 36 35 33 31 32 32 30 32 46 41 41 39 39 40 43 39 35 30 32 29 27 29 28 23 25 28 31 32 30 31 32 27 26 27 24 23 25 29 29 44 62 65 72 71 70 72 71 71 72 73 74 73 74 75 76 76 76 76 76 76 76 76 77 76 77 76 75 75 74 73 72 73 73 71 70 71 71 70 71 70 69 68
30 36 40 36 35 36 34 32 33 33 35 49 44 42 43 40 37 40 38 33 37 37 32 34 32 30 26 27 30 31 28 25 24 30 33 30 31 31 33 38 39 34 41 54 61 66 68 70 71 71 72 72 73 74 75 74 75 75 75 76 76 75 74 75 75 75 75 76 76 76 76 75 74 72 71 72 72 71 70 70 71 70 70 69 68 67
29 31 34 34 37 35 35 33 32 37 38 46 45 42 40 40 40 38 32 30 58 53 53 52 50 49 50 54 32 30 29 25 23 29 27 31 33 33 36 40 43 39 44 58 61 67 70 72 72 72 71 71 74 75 74 73 74 75 75 75 73 72 73 74 74 76 76 76 76 75 75 74 73 73 71 71 71 71 71 70 69 69 68 68 67 67
29 30 32 32 32 33 35 32 32 35 42 42 41 42 40 40 38 39 32 42 54 54 52 54 52 50 51 51 51 31 33 32 32 35 30 32 30 30 33 49 51 47 50 56 60 69 70 71 72 71 72 73 74 72 72 73 74 74 74 74 72 72 72 74 75 76 75 75 74 73 73 72 72 71 70 70 71 70 69 69 68 68 67 66 65 66
29 31 32 33 30 29 31 30 30 33 43 43 44 39 41 39 41 43 51 57 55 52 54 53 53 55 54 51 52 49 35 27 29 25 42 49 51 54 54 53 54 57 61 63 69 69 69 69 72 71 70 73 72 72 73 74 74 74 73 71 72 73 74 76 76 75 75 75 73 72 71 71 72 71 69 71 71 70 70 70 69 68 66 65 65 66
27 28 27 28 32 29 32 29 28 29 49 44 42 39 45 39 43 52 51 50 49 52 51 54 53 55 56 54 49 51 50 34 23 30 48 53 59 61 61 61 61 61 65 69 69 69 68 69 71 73 74 71 71 72 73 74 74 72 72 73 75 75 75 75 75 75 74 73 73 72 71 71 71 70 69 70 71 70 69 69 68 68 67 66 66 65
33 28 28 31 33 28 28 27 29 35 47 45 45 41 51 50 49 52 50 49 52 52 53 54 55 56 58 57 52 48 44 45 51 55 60 63 62 62 64 66 68 70 69 67 66 68 70 73 71 70 69 68 71 73 73 73 73 74 74 74 75 75 74 74 74 73 72 72 72 71 71 70 69 69 70 70 70 70 69 68 68 67 66 66 65 65
37 34 36 28 33 31 30 33 51 49 46 46 48 48 50 51 51 52 53 52 53 53 57 57 57 57 58 59 57 53 50 55 61 61 62 64 65 65 67 68 68 67 66 66 68 70 68 66 67 68 70 71 73 73 74 75 75 75 74 74 74 74 74 73 72 71 71 71 71 71 70 69 69 69 70 70 70 68 67 67 67 66 67 66 66 65
49 48 53 47 43 49 50 51 49 47 46 46 43 47 46 47 49 51 52 54 54 55 56 57 58 57 58 59 55 58 58 60 62 60 62 65 65 66 67 67 67 68 68 68 68 68 69 69 70 71 72 73 74 74 74 74 74 73 74 74 73 73 73 72 71 71 70 70 69 69 68 68 68 69 69 68 68 68 68 66 66 66 66 65 65 65
51 46 43 42 52 45 43 50 49 47 47 47 47 47 46 45 44 46 50 54 53 52 53 57 58 58 58 58 59 61 60 61 62 63 65 66 65 66 65 66 66 66 66 67 67 68 67 68 68 69 70 70 71 70 70 71 72 73 73 73 72 72 72 71 70 69 69 69 68 68 68 68 67 67 68 68 67 67 67 66 66 66 65 65 64 64
46 48 46 45 49 47 49 54 53 52 54 52 50 50 47 46 47 48 50 51 52 51 53 56 58 58 58 61 64 63 64 64 64 65 64 65 66 67 68 69 69 69 68 67 68 69 69 68 68 68 69 70 70 69 69 70 70 71 71 70 70 71 71 71 70 68 68 67 67 67 68 67 68 67 66 66 66 66 66 66 65 65 65 64 65 64
48 49 45 50 46 52 55 52 51 52 53 53 52 51 50 50 51 51 51 50 49 49 51 52 55 60 58 61 61 60 60 62 63 66 64 63 65 66 66 67 69 70 70 70 69 70 70 70 70 70 69 69 69 69 69 68 67 68 69 69 71 71 70 69 68 68 67 66 66 67 68 67 67 67 66 66 65 61 58 61 68 66 66 62 62 67
49 46 50 47 48 46 49 50 48 46 48 50 53 53 50 51 50 50 51 50 50 51 50 49 50 51 52 53 55 57 58 59 60 61 62 62 64 65 65 65 65 66 68 69 70 70 71 71 71 70 69 69 69 68 68 67 68 68 67 69 70 70 70 70 68 67 66 65 65 65 65 65 64 66 65 65 63 61 57 48 43 49 67 63 53 47
48 51 49 48 48 48 53 55 55 55 53 53 54 55 54 51 51 50 51 50 51 50 49 50 49 50 50 52 53 53 56 57 57 58 57 59 62 64 64 65 64 64 64 66 67 69 70 71 71 71 71 70 69 68 67 68 67 68 68 70 71 70 70 70 67 65 64 64 62 62 64 63 64 66 66 65 64 64 62 59 55 41 41 46 48 45